www.pogodaiklimat.ru

Погода и климат >> Архив погоды >> Новая Зеландия >> Тимару


ПОГОДА в Тимару

  • Прогноз погоды в Тимару
  • Монитор погоды в Тимару

АРХИВ ПОГОДЫ в Тимару

Время (UTC), дата Ветер
(напр.,м/с)
 
Видим.   Явления Облачность Т
(С)
Тd
(С)
f
(%)
Тe
(С)
Тes
(С)
Комфортность P
(гПа)
Po
(гПа)
Тmin
(С)
Tmax
(С)
R
(мм)
R24
(мм)
S
(см)
00 16.07 ЮВ 3 10 км н/о +9.7 +3.9 67 +8 +8 984.1 980.9 +1.9
03 16.07 ЮВ 2 20 км н/о +9.4 +2.3 61 +9 +9 984.4 981.2
06 16.07 ЮЗ 1 20 км н/о +4.9 +2.7 86 +5 +5 985.6 982.3
09 16.07 СЗ 2 20 км н/о +4.7 +3.9 95 +2 +2 986.3 983.0
12 16.07 СЗ 1 10 км н/о +5.0 +4.1 94 +4 +4 986.3 983.0 +10.4
15 16.07 З 2 20 км н/о +6.0 +5.2 95 +3 +3 985.9 982.6
18 16.07 ЮЗ 1 20 км н/о +5.8 +5.1 95 +4 +4 986.2 982.9
21 16.07 ЮЗ 2 2000 м н/о +6.2 +6.0 99 +4 +4 987.5 984.2
00 17.07 ЮЗ 1 4000 м н/о +6.0 +5.7 98 +5 +5 989.6 986.3 +2.3 13
03 17.07 З 2 20 км н/о +8.7 +4.4 74 +7 +7 990.7 987.4
06 17.07 штиль 0 10 км н/о +3.3 +1.9 91 +2 +2 992.4 989.1 0.6
09 17.07 СЗ 2 1000 м н/о -0.6 -1.0 97 -4 -4 994.2 990.8
12 17.07 З 2 20 км н/о -0.2 -0.8 96 -4 -4 995.0 991.6 +9.9
15 17.07 З 3 20 км н/о +3.7 -0.3 75 0 0 995.6 992.3
18 17.07 СВ 1 20 км н/о +2.6 -1.4 75 +2 +2 996.6 993.2
21 17.07 С 2 20 км н/о +2.5 -0.8 79 -1 -1 998.2 994.8
00 18.07 С 1 20 км н/о +11.0 +2.3 55 +11 +11 999.0 995.7 -1.8 0.6
03 18.07 ЮВ 2 20 км н/о +10.3 +5.1 70 +9 +9 998.9 995.6
06 18.07 ЮЗ 2 20 км н/о +4.8 +2.8 87 +3 +3 999.6 996.3
09 18.07 З 2 10 км н/о +1.1 +0.2 94 -2 -2 1000.0 996.6
12 18.07 СЗ 2 20 км н/о +2.6 +1.8 94 -0 -0 1000.0 996.6 +12.5
15 18.07 З 2 20 км н/о +2.9 +2.2 95 0 0 999.6 996.2
18 18.07 СЗ 3 20 км н/о +4.6 +2.4 86 +1 +1 999.7 996.4
21 18.07 ЮЗ 2 20 км н/о +5.0 +3.2 88 +3 +3 1000.5 997.2
00 19.07 ЮЗ 2 10 км н/о +8.5 +6.0 84 +7 +7 1001.7 998.4 +0.8 0.2
03 19.07 ЮЗ 3 10 км н/о +8.9 +6.8 87 +6 +6 1000.7 997.4
06 19.07 Ю 4 10 км н/о +8.1 +7.6 97 +5 +5 1001.4 998.1 2
09 19.07 ЮЗ 3 4000 м н/о +7.8 +7.4 97 +5 +5 1001.8 998.5
12 19.07 ЮЗ 4 10 км н/о +7.9 +7.2 95 +5 +5 1001.9 998.6 +8.9 6
15 19.07 З 3 10 км н/о +7.6 +6.9 95 +5 +5 1001.2 997.9
18 19.07 З 3 10 км н/о +7.7 +6.8 94 +5 +5 1001.0 997.7 6
21 19.07 З 3 20 км н/о +7.7 +5.8 88 +5 +5 1001.9 998.6
00 20.07 СЗ 3 20 км н/о +8.8 +6.4 85 +6 +6 1002.4 999.1 +7.5 17
03 20.07 З 2 20 км н/о +9.4 +6.6 83 +8 +8 1002.4 999.1
06 20.07 З 3 2000 м н/о +8.4 +7.3 93 +6 +6 1003.9 1000.6 0.2
09 20.07 ЮЗ 2 10 км н/о +8.3 +7.9 97 +6 +6 1004.8 1001.5
12 20.07 Ю 6 10 км н/о +9.3 +9.2 99 +5 +5 1005.7 1002.4 +9.7 11
15 20.07 Ю 6 2000 м н/о +9.5 +9.5 100 +6 +6 1006.4 1003.1
18 20.07 Ю 7 1000 м н/о +9.8 +9.8 100 +6 +6 1007.5 1004.2 17
21 20.07 Ю 5 2000 м н/о +9.8 +9.8 100 +6 +6 1009.4 1006.1
00 21.07 ЮВ 4 2000 м н/о +10.3 +10.2 99 +7 +7 1010.4 1007.1 +7.9 32
03 21.07 ЮВ 3 10 км н/о +10.5 +10.4 99 +8 +8 1010.4 1007.1
06 21.07 ЮЗ 2 10 км н/о +9.7 +9.7 100 +8 +8 1011.6 1008.3 0.8
09 21.07 СЗ 1 1000 м н/о +9.4 +9.4 100 +10 +10 1012.7 1009.4
12 21.07 С 1 200 м н/о +8.6 +8.6 100 +8 +8 1013.5 1010.2 +10.6 0.8
15 21.07 СВ 1 200 м н/о +8.6 +8.6 100 +9 +9 1013.4 1010.1
18 21.07 В 1 200 м н/о +7.7 +7.6 99 +7 +7 1013.8 1010.5 0.2
21 21.07 В 1 200 м н/о +6.1 +6.1 100 +5 +5 1014.8 1011.4
00 22.07 Ю 1 2000 м н/о +7.4 +7.4 100 +7 +7 1015.3 1011.9 +5.6 2
03 22.07 ЮВ 1 200 м н/о +7.3 +7.3 100 +7 +7 1015.0 1011.6
06 22.07 Ю 1 2000 м н/о +7.5 +7.4 99 +6 +6 1015.9 1012.5
09 22.07 Ю 1 4000 м н/о +7.5 +7.5 100 +6 +6 1017.3 1013.9
12 22.07 СВ 1 10 км н/о +8.0 +7.7 98 +7 +7 1018.7 1015.3 +9.1
15 22.07 штиль 0 2000 м н/о +7.7 +7.6 99 +7 +7 1019.0 1015.6
18 22.07 СЗ 1 10 км н/о +7.6 +7.5 99 +8 +8 1019.4 1016.0
21 22.07 СЗ 2 10 км н/о +7.6 +7.6 100 +6 +6 1021.1 1017.7

 

Местоположение метеостанции Тимару (Новая Зеландия): широта -44.30 долгота 171.23 высота над уровнем моря 27 м.

В архиве по умолчанию представлена погода в Тимару за последнюю неделю. Архивные данные за месяц целиком и за предыдущие месяцы, начиная с января 2011 года, Вы можете получить, выбрав интересующий диапазон дат из раскрывающегося списка и нажав кнопку "Ввод!".


*Определитесь, кто Вы:
робот инопланетянин человек

Внимание! Время в таблицах - всемирное. Для получения местного времени необходимо прибавить поправку, которая равна 12 ч.

Смотрите также архив погоды в соседних городах и на ближайших метеорологических станциях:

Погода в Тара Хилс (Новая Зеландия) (109 км)
Погода в Крайстчерче (Новая Зеландия) (137 км)
Погода в Хокитике (Новая Зеландия) (178 км)
Погода в Хаасте (Новая Зеландия) (185 км)
Погода в Данидине (Новая Зеландия) (197 км)
Погода в Квинстауне (Новая Зеландия) (213 км)
Погода в Вестпорте (Новая Зеландия) (287 км)
Погода в Кайкуре (Новая Зеландия) (290 км)
Погода в Инверкаргилле (Новая Зеландия) (326 км)
Погода на Острове Секретари (Новая Зеландия) (358 км)

Пояснения к столбцам:

Ветер - указаны скорость ветра в м/с - средняя за 10 мин, порывы в срок и между сроками (в фигурных скобках) и направление, откуда дует ветер: С - северный, СВ - северо-восточный, В - восточный, ЮВ - юго-восточный, Ю - южный, ЮЗ - юго-западный, З - западный, СЗ - северо-западный.
Видимость - горизонтальная дальность видимости в метрах или километрах. При видимости от 1 до 10 км при отсутствии осадков обычно наблюдается дымка, при ухудшении видимости до 1 км и менее - туман. В сухую погоду видимость может ухудшаться дымом, пылью или мглою.
Явления - указаны атмосферные явления, наблюдавшиеся в срок или в последний час перед сроком; фигурными скобками обозначены явления, наблюдавшиеся между сроками (за 1-3 часа до срока); квадратными скобками обозначены град или гололедные отложения с указанием их диаметра в мм.
Облачность - указаны через наклонную черту общая и нижняя облачность в баллах и высота нижней границы облаков в метрах; квадратными скобками обозначены формы облаков: Ci - перистые, Cs - перисто-слоистые, Cc - перисто-кучевые, Ac - высококучевые, As - высокослоистые, Sc - слоисто-кучевые, Ns - слоисто-дождевые, Cu - кучевые, Cb - кучево-дождевые. Подробнее классификацию облаков см. в Атласе облаков (PDF).
T - Температура воздуха - температура, измеренная на высоте 2 м над землей.
Td - Температура точки росы - температура, при понижении до которой содержащийся в воздухе водяной пар достигнет насыщения.
f - Относительная влажность воздуха - влажноcть воздуха, измеренная на высоте 2 м над землей.
Te - Эффективная температура - температура, которую ощущает одетый по сезону человек в тени. Характеристика душности погоды. При расчете учитывается влияние влажности воздуха и скорости ветра на теплоощущения человека.
Tes - Эффективная температура на солнце - температура, которую ощущает человек, с поправкой на солнечный нагрев. Характеристика знойности погоды. Зависит от высоты солнца над горизонтом, облачности и скорости ветра. Ночью, в пасмурную погоду, а также при ветре 12 м/с и более поправка равна нулю.
P - Атмосферное давление - приведенное к уровню моря атмосферное давление.
Po - Атмосферное давление - измеренное на уровне метеостанции атмосферное давление.
Tmin - Минимальная температура - минимум температуры воздуха на высоте 2 м над землей.
Tmax - Максимальная температура - максимум температуры воздуха на высоте 2 м над землей.
R - Количество осадков - Количество выпавших осадков за период времени, мм. При наведении курсора мыши на число - период времени, за который выпало указанное количество осадков.
R24 - Количество осадков - Количество выпавших осадков за 24 часа, мм.
S - Снежный покров - Высота снежного покрова, см. При наведении курсора мыши на число - состояние снежного покрова и степень покрытия местности в баллах.